Regional Weather Roundup
Issued by NWS Green Bay, WI

Home | Current Version | Previous Version | Graphics & Text | Print | Product List | Glossary Off
Versions: 1 2 3 4 5 6 7 8 9 10 11 12 13 14 15 16 17 18 19 20 21 22 23 24 25 26 27 28 29 30 31 32 33 34 35 36 37 38 39 40 41 42 43 44 45 46 47 48 49 50

000
ASUS43 KGRB 231500
RWRGRB

NORTH-CENTRAL AND NORTHEAST WISCONSIN REGIONAL WEATHER ROUNDUP
NATIONAL WEATHER SERVICE GREEN BAY WI
1000 AM CDT MON APR 23 2018

WIZ005-009-010>012-018-019-231600-
NORTH CENTRAL WISCONSIN

CITY           SKY/WX    TMP DP  RH WIND       PRES   REMARKS
IRONWOOD       FAIR      55  29  36 SW7       30.24F
MANITOWISH WTR NOT AVBL
ARBOR VITAE    NOT AVBL
EAGLE RIVER    FAIR      49  24  37 SW7       30.26F
LAND O LAKES   FAIR      50  24  35 SW6       30.28F
RHINELANDER    FAIR      52  26  36 W7        30.27F
PHILLIPS       FAIR      52  28  39 S7        30.26F
ANTIGO         NOT AVBL
TOMAHAWK       NOT AVBL
MERRILL          N/A     51  28  40 CALM      30.28F
$$

WIZ013-073-231600-
NORTHEAST WISCONSIN

CITY           SKY/WX    TMP DP  RH WIND       PRES   REMARKS
IRON MOUNTAIN  FAIR      57  22  25 S8        30.26F
MARINETTE      FAIR      52  26  36 SE5       30.30F
$$

WIZ017-030-035>037-045-231600-
CENTRAL WISCONSIN

CITY           SKY/WX    TMP DP  RH WIND       PRES   REMARKS
MEDFORD        NOT AVBL
WAUSAU         FAIR      52  26  36 CALM      30.26F
MOSINEE        MOSUNNY   54  23  30 CALM      30.28F
MARSHFIELD     FAIR      51  29  42 SE3       30.26F
WISC RAPIDS    FAIR      55  21  26 VRB3      30.28F
STEVENS POINT  NOT AVBL
WAUPACA        FAIR      51  25  35 CALM      30.29F
SHAWANO        FAIR      48  23  37 CALM      30.29F
CLINTONVILLE   FAIR      48  20  34 CALM      30.29F
WAUTOMA        FAIR      51  27  39 CALM      30.28
$$

WIZ038-039-048-051-231600-
FOX VALLEY

CITY           SKY/WX    TMP DP  RH WIND       PRES   REMARKS
NWS GREEN BAY  FAIR      51  31  46 W3        30.29F
APPLETON       MOSUNNY   50  23  34 CALM      30.27S
OSHKOSH        FAIR      51  31  46 CALM      30.27F
FOND DU LAC    FAIR      50  33  52 NW6       30.26F
$$

WIZ022-050-052-231600-
EAST CENTRAL WISCONSIN

CITY           SKY/WX    TMP DP  RH WIND       PRES   REMARKS
EPHRAIM        NOT AVBL
WASHINGTON ISL NOT AVBL
STURGEON BAY   FAIR      53  29  39 S5        30.29F
MANITOWOC      FAIR      50  32  50 E3        30.29F
SHEBOYGAN      FAIR      51  36  56 NE3       30.26F
$$

LMZ563-521-522-541>543-231600-
LAKESHORE

STATION/POSITION TIME  TEMP    WIND        PRES    VSBY  WAVE
                       AIR SEA DIR/SP/G                  HT/PER
                 (UTC) (F)     (DEG/KT/KT) (MB)    (MI)  (FT/S)
SHEBOYGAN LKSHOR 1400   40     350/ 10/ 10 1025.8F
KEWAUNEE LKSHORE 1430   48     150/  3/  4 1025.0F
NORTHPORT PIER   1440   39                 1025.7F
SISTER BAY LKSHO 1427   41     350/  8/  9   N/A
MENOMINEE LKSHOR 1430   35      10/  5/  5 1025.6F
$$



USA.gov is the U.S. government's official web portal to all federal, state and local government web resources and services.